Location: Tamazert
(32.6352°N, 5.2072°W)
Time: 09:56:10
(UTC+00:00)

Vanguard 1 Rocket - Visible Passes

Search period start: 06 October 2022 00:00
Search period end: 16 October 2022 00:00
Orbit: 650 x 4225 km, 34.3° (Epoch: 05 October)

Date Brightness Start Highest point End Pass type
(mag) Time Alt. Az. Time Alt. Az. Time Alt. Az.
06 Oct 9.5 19:49:42 10° WSW 20:13:17 90° SSE 20:19:30 44° ENE visible
06 Oct 9.9 22:25:35 10° W 22:36:46 43° WNW 22:36:46 43° WNW visible
07 Oct 10.1 18:33:26 10° WSW 18:59:04 80° SSE 19:12:05 18° ENE visible
07 Oct 9.2 21:08:58 10° W 21:29:21 83° NNW 21:29:21 83° NNW visible
07 Oct 10.9 23:43:48 10° WNW 23:46:36 17° WNW 23:46:36 17° WNW visible
08 Oct 9.5 19:52:00 10° W 20:15:54 87° N 20:21:55 46° ENE visible
08 Oct 10.0 22:28:01 10° WNW 22:39:11 42° W 22:39:11 42° W visible
09 Oct 10.2 18:35:29 10° WSW 19:01:30 86° SSE 19:14:27 20° ENE visible
09 Oct 9.3 21:11:24 10° W 21:31:43 83° NW 21:31:43 83° NW visible
09 Oct 10.9 23:46:16 10° WNW 23:48:58 16° WNW 23:48:58 16° WNW visible
10 Oct 9.5 19:54:24 10° W 20:18:33 85° N 20:24:15 49° E visible
10 Oct 10.1 22:30:24 10° WNW 22:41:30 41° W 22:41:30 41° W visible
11 Oct 10.2 18:37:44 10° WSW 19:03:59 90° NNW 19:16:46 22° E visible
11 Oct 9.3 21:13:49 10° W 21:34:02 82° WNW 21:34:02 82° WNW visible
11 Oct 11.0 23:48:46 10° WNW 23:51:17 15° WNW 23:51:17 15° WNW visible
12 Oct 9.5 19:56:50 10° W 20:21:14 85° N 20:26:33 52° E visible
12 Oct 10.2 22:32:45 10° WNW 22:43:49 39° W 22:43:49 39° W visible
13 Oct 10.1 18:40:06 10° W 19:06:31 87° N 19:19:04 24° E visible
13 Oct 9.4 21:16:10 10° WNW 21:36:20 79° W 21:36:20 79° W visible
13 Oct 11.1 23:51:23 10° WNW 23:53:35 14° W 23:53:35 14° W visible
14 Oct 9.5 19:59:16 10° W 20:23:53 87° N 20:28:51 56° E visible
14 Oct 10.3 22:35:05 10° WNW 22:46:07 37° W 22:46:07 37° W visible
15 Oct 10.1 18:42:33 10° W 19:09:06 85° N 19:21:24 26° E visible
15 Oct 9.5 21:18:30 10° WNW 21:38:39 74° WSW 21:38:39 74° WSW visible
